Simultaneous Nadir Overpasses (SNOs) Predictions

Prediction of SNOs between AQUA and LANDSAT-8 Satellite Orbit:

Table of predicted SNOs for the next 14.0 days since TLE Epoch: 10/5/2024
Index Date (AQUA) Time (AQUA) Lat,Lon (AQUA) SZA (AQUA ) Date (LANDSAT-8) Time (LANDSAT-8) Lat,Lon (LANDSAT-8) SZA (LANDSAT-8 ) Distance(km) Time Diff (sec)
1 10/18/2024 20:45:54 -73.71, 53.59 96.17 10/18/2024 20:44:47 -73.72, 51.34 96.25 70.13 67
2 10/18/2024 21:35:18 73.87,-139.11 84.00 10/18/2024 21:34:09 73.87,-140.67 83.93 48.06 69
3 10/18/2024 22:24:44 -74.20, 27.80 95.70 10/18/2024 22:23:31 -74.17, 27.64 95.74 5.75 73
4 10/18/2024 23:14:05 74.21,-164.56 84.33 10/18/2024 23:12:55 74.22,-164.59 84.33 2.10 70
5 10/19/2024 00:03:25 -74.22, 3.07 95.65 10/19/2024 00:02:23 -74.21, 3.01 95.68 2.50 62
6 10/19/2024 00:52:46 74.23, 170.71 84.38 10/19/2024 00:51:48 74.21, 170.66 84.34 2.86 58
7 10/19/2024 01:42:06 -74.25, -21.67 95.60 10/19/2024 01:41:15 -74.25, -21.62 95.61 1.42 51
8 10/19/2024 02:31:27 74.26, 145.97 84.43 10/19/2024 02:30:40 74.25, 146.03 84.41 2.12 47
9 10/19/2024 03:20:46 -74.23, -46.28 95.60 10/19/2024 03:20:08 -74.23, -46.37 95.60 2.98 38



Historial Predications of SNOs between AQUA and LANDSAT-8
